Regional Weather Roundup
Issued by NWS

Home | Current Version | Previous Version | Graphics & Text | Print | Product List | Glossary On
Versions: 1 2 3 4 5 6 7 8 9 10 11 12 13 14 15 16 17 18 19 20 21 22 23 24 25 26 27 28 29 30 31 32 33 34 35 36 37 38 39 40 41 42 43 44 45 46 47 48 49 50
000
ASUS43 KTOP 221759
RWRKS

WEATHER ROUNDUP FOR KANSAS
NATIONAL WEATHER SERVICE GOODLAND KS
100 PM CDT FRI MAY 22 2015

NOTE:  "FAIR" INDICATES FEW OR NO CLOUDS BELOW 12,000 FEET WITH NO
SIGNIFICANT WEATHER AND/OR OBSTRUCTIONS TO VISIBILITY.

KSZ001>006-013>018-027>032-041>047-221900-
NORTHWEST KANSAS

CITY           SKY/WX    TMP DP  RH WIND       PRES   REMARKS
GOODLAND       LGT RAIN  49  48  97 SE22G31   30.07S FOG
6HR MIN TEMP:  47; 6HR MAX TEMP:  49; 6HR PCP:  0.23;

HAYS           CLOUDY    54  43  66 SE16      30.16F
HILL CITY      CLOUDY    53  48  83 SE10      30.16F
6HR MIN TEMP:  50; 6HR MAX TEMP:  53; 6HR PCP:  0.19;

RUSSELL        CLOUDY    55  48  77 SE17      30.17F
6HR MIN TEMP:  50; 6HR MAX TEMP:  55; 6HR PCP:  0.15;

$$

KSZ061>065-074>080-084>089-221900-
SOUTHWEST KANSAS

CITY           SKY/WX    TMP DP  RH WIND       PRES   REMARKS
DODGE CITY     CLOUDY    55  49  80 SE20      30.14F
6HR MIN TEMP:  49; 6HR MAX TEMP:  55; 6HR PCP:  0.01;

ELKHART          N/A     56  48  74 S15         N/A
GARDEN CITY    CLOUDY    52  50  93 SE20G28   30.10F
6HR MIN TEMP:  48; 6HR MAX TEMP:  52;

GREAT BEND     CLOUDY    55  48  76 S18       30.16F
LIBERAL        CLOUDY    55  50  82 S14       30.12F
$$

KSZ066>073-081>083-090>101-221900-
SOUTHEAST KANSAS

CITY           SKY/WX    TMP DP  RH WIND       PRES   REMARKS
CHANUTE        CLOUDY    62  49  62 SE10      30.22F
6HR MIN TEMP:  50; 6HR MAX TEMP:  62; 6HR PCP: TRACE;

COFFEYVILLE    CLOUDY    62  52  69 S15G22    30.24F
6HR MIN TEMP:  51; 6HR MAX TEMP:  62; 6HR PCP:  0.02;

HUTCHINSON     CLOUDY    56  52  86 SE13      30.20S
6HR MIN TEMP:  52; 6HR MAX TEMP:  57; 6HR PCP:  0.05;

NEWTON         CLOUDY    55  50  82 S13       30.22F
PARSONS        CLOUDY    62  53  72 VRB7      30.25F
6HR MIN TEMP:  51; 6HR MAX TEMP:  62; 6HR PCP:  0.01;

WICHITA INTL   DRIZZLE   56  53  90 S12       30.20F FOG
6HR MIN TEMP:  52; 6HR MAX TEMP:  56; 6HR PCP:  0.24;

WICHITA JABRA  CLOUDY    57  53  86 SE15      30.20F
6HR MIN TEMP:  50; 6HR MAX TEMP:  57; 6HR PCP:  0.18;

WICHITA MCCONL LGT RAIN  55  54  94 SE13      30.21S
WINFIELD       CLOUDY    59  55  87 SE15      30.21F
6HR MIN TEMP:  51; 6HR MAX TEMP:  59; 6HR PCP:  0.24;

$$

KSZ007>012-019>026-033>040-048>060-102>105-221900-
NORTHEAST KANSAS

CITY           SKY/WX    TMP DP  RH WIND       PRES   REMARKS
CONCORDIA      CLOUDY    57  47  69 SE8       30.23R
6HR MIN TEMP:  49; 6HR MAX TEMP:  58; 6HR PCP: TRACE;

EMPORIA        CLOUDY    63  49  60 S20       30.23R
6HR MIN TEMP:  48; 6HR MAX TEMP:  63; 6HR PCP: TRACE;

LAWRENCE       CLOUDY    63  47  55 SE10      30.26S
6HR MIN TEMP:  47; 6HR MAX TEMP:  63;

MANHATTAN      CLOUDY    62  48  60 S13       30.23R
6HR MIN TEMP:  49; 6HR MAX TEMP:  63; 6HR PCP:  0.01;

OLATHE IND     CLOUDY    62  46  55 SE12      30.27F
6HR MIN TEMP:  50; 6HR MAX TEMP:  62;

OLATHE EXE     CLOUDY    61  47  59 S8        30.27S
6HR MIN TEMP:  50; 6HR MAX TEMP:  61;

SALINA         CLOUDY    59  50  72 SE13      30.21F
6HR MIN TEMP:  50; 6HR MAX TEMP:  60; 6HR PCP:  0.02;

TOPEKA BILLARD CLOUDY    62  48  60 SE12      30.25S
6HR MIN TEMP:  48; 6HR MAX TEMP:  63;

TOPEKA FORBES  CLOUDY    63  48  58 SE9       30.24F
6HR MIN TEMP:  49; 6HR MAX TEMP:  63;

$$



USA.gov is the U.S. government's official web portal to all federal, state and local government web resources and services.